This demonstration page uses our WeatherBlox Daily Observations layout. Learn more.

Left ArrowRight Arrow

39.95238, -75.16362

Hourly Observations for May 24, 2015

Temp ( °F °C ) Dew Point ( °F °C ) Humidity (%) Winds ( mph kmh ) Pressure ( in mb ) Visibility ( mi km ) Precip ( " mm )
12:54 am 00:54 Partly Cloudy 57 13.9 48 8.9 72 72 SSW 3 6 30.38 1029 10 16 0.00 0.00
1:54 am 01:54 Mostly Clear 56 13.3 48 8.9 75 75 SSW 6 9 30.38 1029 10 16 0.00 0.00
2:54 am 02:54 Mostly Clear 55 12.8 46 7.8 72 72 SSW 8 13 30.38 1029 10 16 0.00 0.00
3:54 am 03:54 Mostly Clear 54 12.2 46 7.8 75 75 S 7 11 30.38 1029 10 16 0.00 0.00
4:54 am 04:54 Mostly Clear 53 11.7 47 8.3 80 80 SSW 6 9 30.38 1029 10 16 0.00 0.00
5:54 am 05:54 Mostly Sunny 54 12.2 49 9.4 83 83 SW 9 15 30.39 1029 10 16 0.00 0.00
6:54 am 06:54 Mostly Sunny 56 13.3 50 10 81 81 SW 7 11 30.40 1029 10 16 0.00 0.00
7:54 am 07:54 Mostly Sunny 59 15 51 10.6 75 75 SW 9 15 30.40 1029 10 16 0.00 0.00
8:54 am 08:54 Mostly Sunny 64 17.8 53 11.7 68 68 WSW 10 17 30.41 1030 10 16 0.00 0.00
9:54 am 09:54 Mostly Sunny 68 20 53 11.7 59 59 SW 12 19 30.39 1029 10 16 0.00 0.00
10:54 am 10:54 Partly Cloudy 71 21.7 53 11.7 53 53 SW 12 19 30.37 1029 10 16 0.00 0.00
11:54 am 11:54 Mostly Cloudy 74 23.3 52 11.1 46 46 WSW 8 13 30.36 1028 10 16 0.00 0.00
12:54 pm 12:54 Mostly Cloudy 74 23.3 52 11.1 46 46 W 9 15 30.33 1027 10 16 0.00 0.00
1:54 pm 13:54 Mostly Cloudy 77 25 51 10.6 40 40 WSW 13 20 30.32 1027 10 16 0.00 0.00
2:54 pm 14:54 Partly Cloudy 78 25.6 49 9.4 36 36 WSW 13 20 30.30 1026 10 16 0.00 0.00
3:54 pm 15:54 Partly Cloudy 81 27.2 46 7.8 29 29 WSW 13 20 30.27 1025 10 16 0.00 0.00
4:54 pm 16:54 Mostly Sunny 81 27.2 43 6.1 26 26 WSW 12 19 30.26 1025 10 16 0.00 0.00
5:54 pm 17:54 Mostly Sunny 81 27.2 42 5.6 25 25 SW 14 22 30.25 1024 10 16 0.00 0.00
6:54 pm 18:54 Mostly Sunny 79 26.1 40 4.4 25 25 SSW 7 11 30.25 1024 10 16 0.00 0.00
7:54 pm 19:54 Partly Cloudy 77 25 41 5 28 28 SSW 9 15 30.26 1025 10 16 0.00 0.00
8:54 pm 20:54 Mostly Cloudy 73 22.8 54 12.2 51 51 S 9 15 30.26 1025 10 16 0.00 0.00
9:54 pm 21:54 Mostly Cloudy 69 20.6 54 12.2 59 59 SSE 7 11 30.28 1025 10 16 0.00 0.00
10:54 pm 22:54 Partly Cloudy 67 19.4 54 12.2 63 63 S 5 7 30.28 1026 10 16 0.00 0.00
11:54 pm 23:54 Mostly Cloudy 66 18.9 55 12.8 68 68 S 6 9 30.28 1026 10 16 0.00 0.00

Powered by AerisWeather